Altoona, PA

4:33 AM EST on November 20, 2017 (GMT -0500)
Altoona-Blair County

Weather History for KAOO - October, 2014

Change the Weather History Date:

Tuesday, October 7, 2014

  Actual Average Record
Temperature  
Mean Temperature 57 °F 54 °F  
Max Temperature 64 °F 64 °F 84 °F (2007)
Min Temperature 50 °F 43 °F 27 °F (1964)
Degree Days  
Heating Degree Days 8 12  
Month to date heating degree days 62 75  
Since 1 July heating degree days 220 246  
Cooling Degree Days 0 0  
Month to date cooling degree days 0 0  
Year to date cooling degree days 519 522  
Growing Degree Days 8 (Base 50)    
Moisture  
Dew Point 51 °F    
Average Humidity 77    
Maximum Humidity 93    
Minimum Humidity 60    
Precipitation  
Precipitation 0.20 in 0.08 in 1.65 in (2005)
Month to date precipitation 0.83 0.59  
Year to date precipitation 30.21 24.97  
Sea Level Pressure  
Sea Level Pressure 29.89 in    
Wind  
Wind Speed 10 mph (SSW)    
Max Wind Speed 20 mph    
Max Gust Speed 26 mph    
Visibility 10 miles    
Events Rain    
T = Trace of Precipitation, MM = Missing Value Source: NWS Daily Summary

Daily Weather History Graph

Daily Weather History Graph

Search for Another Location

Airport or City:

Trip Planner

Search our weather history database for the weather conditions in past years. The results will help you decide how hot, cold, wet, or windy it might be!

Date:

Astronomy

Oct. 07, 2014 Rise Set
Actual Time 7:15 AM EDT 6:45 PM EDT
Civil Twilight 6:48 AM EDT 7:12 PM EDT
Nautical Twilight 6:16 AM EDT 7:44 PM EDT
Astronomical Twilight 5:45 AM EDT 8:16 PM EDT
Moon 6:20 PM EDT (10/7) 6:10 AM EDT (10/7)
Length of Visible Light 12h 24m
Length of Day
11h 30m
Waxing Gibbous, 99% of the Moon is Illuminated
Oct 7
Waxing Gibbous
Oct 8
Full
Oct 15
Last Quarter
Oct 23
New
Oct 30
First Quarter

Hourly Weather History & Observations

Time (EDT) Temp. Dew Point Humidity Pressure Visibility Wind Dir Wind Speed Gust Speed Precip Events Conditions
12:53 AM 55.0 °F 52.0 °F 89% 29.89 in 10.0 mi SSE 8.1 mph - 0.02 in Rain Light Rain
1:53 AM 53.1 °F 51.1 °F 93% 29.92 in 10.0 mi South 5.8 mph - 0.00 in   Mostly Cloudy
2:53 AM 55.0 °F 50.0 °F 83% 29.91 in 10.0 mi South 12.7 mph - N/A   Overcast
3:53 AM 54.0 °F 50.0 °F 86% 29.92 in 10.0 mi SSW 11.5 mph - 0.00 in   Overcast
4:53 AM 53.1 °F 48.9 °F 86% 29.92 in 10.0 mi SSW 13.8 mph - N/A   Scattered Clouds
5:53 AM 51.1 °F 48.0 °F 89% 29.95 in 10.0 mi SSW 9.2 mph - N/A   Clear
6:53 AM 51.1 °F 46.9 °F 86% 29.96 in 10.0 mi SSW 9.2 mph - N/A   Clear
7:53 AM 51.1 °F 48.0 °F 89% 29.97 in 10.0 mi SSW 9.2 mph - N/A   Clear
8:53 AM 52.0 °F 48.9 °F 89% 29.99 in 10.0 mi SSW 6.9 mph - N/A   Clear
9:53 AM 55.0 °F 50.0 °F 83% 29.99 in 10.0 mi SSW 9.2 mph - N/A   Clear
10:53 AM 55.9 °F 48.9 °F 77% 30.00 in 10.0 mi SSW 12.7 mph - N/A   Clear
11:53 AM 57.0 °F 48.9 °F 74% 29.99 in 10.0 mi SSW 10.4 mph - N/A   Mostly Cloudy
12:53 PM 59.0 °F 48.9 °F 69% 29.97 in 10.0 mi South 13.8 mph - N/A   Mostly Cloudy
1:53 PM 62.1 °F 48.9 °F 62% 29.94 in 10.0 mi SSE 11.5 mph - N/A   Overcast
2:53 PM 64.0 °F 51.1 °F 63% 29.91 in 10.0 mi South 10.4 mph 18.4 mph N/A   Overcast
3:53 PM 62.1 °F 50.0 °F 65% 29.90 in 10.0 mi South 8.1 mph - N/A   Overcast
4:53 PM 61.0 °F 51.1 °F 70% 29.88 in 10.0 mi SSE 8.1 mph - 0.00 in Rain Light Rain
5:53 PM 59.0 °F 51.1 °F 75% 29.88 in 10.0 mi South 6.9 mph - 0.00 in   Overcast
6:53 PM 57.0 °F 54.0 °F 89% 29.86 in 10.0 mi Variable 3.5 mph - 0.02 in Rain Light Rain
7:53 PM 57.0 °F 54.0 °F 89% 29.84 in 10.0 mi SSW 4.6 mph - 0.01 in   Overcast
8:20 PM 57.0 °F 55.0 °F 93% 29.82 in 10.0 mi SSW 9.2 mph - 0.02 in Rain Light Rain
8:36 PM 57.0 °F 55.0 °F 93% 29.81 in 6.0 mi Variable 5.8 mph - 0.05 in Rain Rain
8:45 PM 57.0 °F 55.0 °F 93% 29.81 in 10.0 mi SW 10.4 mph - 0.05 in Rain Light Rain
8:53 PM 57.0 °F 55.0 °F 93% 29.81 in 10.0 mi South 9.2 mph - 0.05 in   Overcast
9:04 PM 57.0 °F 55.0 °F 93% 29.81 in 10.0 mi South 13.8 mph - 0.00 in Rain Light Rain
9:35 PM 57.0 °F 55.0 °F 93% 29.80 in 4.0 mi South 15.0 mph - 0.11 in Rain Rain
9:53 PM 57.0 °F 54.0 °F 89% 29.77 in 10.0 mi South 13.8 mph - 0.11 in Rain Light Rain
10:53 PM 55.9 °F 54.0 °F 93% 29.80 in 10.0 mi SSW 11.5 mph - 0.01 in   Overcast
11:40 PM 55.9 °F 53.1 °F 90% 29.82 in 10.0 mi SW 15.0 mph 23.0 mph N/A   Mostly Cloudy
11:53 PM 55.9 °F 53.1 °F 90% 29.82 in 10.0 mi SW 13.8 mph - N/A   Mostly Cloudy